Tracking 34305 objects as of 6-Jun-2026
HD Live streaming from Space Station
objects crossing your sky now

QIANFAN-137

Track QIANFAN-137 now!
10-day predictions
QIANFAN-137 is classified as:


NORAD ID: 69083
Int'l Code: 2026-104L
Perigee: 811.0 km
Apogee: 819.0 km
Inclination: 89.0 °
Period: 101.0 minutes
Semi major axis: 7185 km
RCS: Unknown
Launch date: May 12, 2026
Source: People's Republic of China (PRC)
Launch site: Taiyaun Space Center, China (TSC)
Your satellite tracking list
Your tracking list is empty




NASA's NSSDC Master Catalog

Two Line Element Set (TLE):
1 69083U 26104L   26156.90082359  .00000135  00000-0  51207-4 0  9993
2 69083  88.9863 342.8836 0005559 136.7337 223.4293 14.25196600  3493
Source of the keplerian elements: AFSPC